Regional Weather Roundup
Issued by NWS

Home | Current Version | Previous Version | Text Only | Print | Product List | Glossary On
Versions: 1 2 3 4 5 6 7 8 9 10 11 12 13 14 15 16 17 18 19 20 21 22 23 24 25 26 27
000
ASUS46 KSEW 241310
RWRWA

WASHINGTON REGIONAL WEATHER ROUNDUP
NATIONAL WEATHER SERVICE SEATTLE WA
600 AM PDT FRI OCT 24 2014

NOTE:"FAIR" INDICATES FEW OR NO CLOUDS BELOW 12,000 FEET WITH NO
SIGNIFICANT WEATHER AND/OR OBSTRUCTIONS TO VISIBILITY.

WAZ505-507>509-241400-
SEATTLE, TACOMA, EVERETT, AND VICINITY

CITY           SKY/WX    TMP DP  RH WIND       PRES   REMARKS
EVERETT        MOCLDY    48  42  80 SE12G17   30.03S
BOEING FIELD   CLOUDY    52  45  77 CALM      30.03F
RENTON         CLOUDY    48  47  96 S3        30.02F FOG
SEATAC AIRPORT CLOUDY    49  44  83 E8        30.03F
JBLM-MCCHORD   CLOUDY    45  45 100 CALM      30.02F FOG
PUYALLUP       NOT AVBL
JBLM-FT LEWIS  CLOUDY    47  46  99 CALM      30.02R
TACOMA NARROWS CLOUDY    49  45  86 NE3       30.02S
$$

WAZ001-503-506-510-514-515-241400-
NORTH INTERIOR

CITY           SKY/WX    TMP DP  RH WIND       PRES   REMARKS
BELLINGHAM     CLOUDY    50  43  77 SE7       30.02S
FRIDAY HARBOR  CLOUDY    50  47  89 SE3       30.03R
EASTSOUND      CLOUDY    50  46  87 S6        30.00S
PORT ANGELES     N/A    N/A N/A N/A MISG      30.01R
NAS WHIDBEY    MOCLDY    51  45  79 SE9       30.02F
BURLINGTON     CLOUDY   N/A N/A N/A E3        30.03F
$$

WAZ020-022-039-040-504-511-512-241400-
SOUTHWEST INTERIOR

CITY           SKY/WX    TMP DP  RH WIND       PRES   REMARKS
SHELTON        CLOUDY    46  45  96 N5        30.00R
OLYMPIA        FOG       43  42  97 CALM      30.02S VSB 1/2
CHEHALIS         N/A     46  46 100 CALM      30.01S FOG
KELSO          CLOUDY    48  45  87 CALM      30.05R
VANCOUVER      CLOUDY    52  49  89 CALM      30.01F
SCAPPOOSE, OR  CLOUDY    50  49  96 W3        30.02S
PORTLAND, OR   CLOUDY    51  50  96 SE7       30.02F
$$

WAZ021-516-517-241400-
WASHINGTON COAST

CITY           SKY/WX    TMP DP  RH WIND       PRES   REMARKS
FORKS          MOCLDY    44  43  96 NE6       29.97S
HOQUIAM        CLOUDY    48  46  93 NE7       29.99S
ASTORIA, OR    CLOUDY    49  47  93 E7        29.97S
$$

WAZ019-023-024-040-518-519-241400-
CASCADE MOUNTAINS AND COLUMBIA GORGE

CITY           SKY/WX    TMP DP  RH WIND       PRES   REMARKS
STAMPEDE PASS  NOT AVBL
TROUTDALE, OR  CLOUDY    51  48  89 SE5       30.01F
THE DALLES, OR CLOUDY    46  44  93 CALM      30.07R
$$

WAZ026-027-041>044-520-521-241400-
EAST SLOPES

CITY           SKY/WX    TMP DP  RH WIND       PRES   REMARKS
OMAK           CLOUDY    37  33  85 NW6       30.04R
WENATCHEE      CLOUDY    46  37  71 N8        30.04R
ELLENSBURG     CLOUDY    41  36  82 E6        30.04R
YAKIMA         CLOUDY    42  38  85 CALM      30.06R
$$

WAZ028-034-035-241400-
COLUMBIA BASIN

CITY           SKY/WX    TMP DP  RH WIND       PRES   REMARKS
EPHRATA        CLOUDY    43  39  86 N3        30.04R
MOSES LAKE     CLOUDY    44  40  85 CALM      30.05R
PASCO          CLOUDY    46  45  96 N5        30.06R
HERMISTON, OR  CLOUDY    48  45  89 CALM      30.05S
$$

WAZ036>038-241400-
NORTHEAST WASHINGTON

CITY           SKY/WX    TMP DP  RH WIND       PRES   REMARKS
SPOKANE GEIGER CLOUDY    42  40  92 S9        30.04S
SPOKANE FELTS  CLOUDY    44  40  85 VRB3      30.06R
FAIRCHILD AFB  CLOUDY    41  40  98 S7        30.04S
COEURDALENE,ID CLOUDY    43  37  81 S5        30.05R
DEER PARK      CLOUDY    42  40  92 S5        30.05R
$$

WAZ029>033-241400-
SOUTHEAST WASHINGTON

CITY           SKY/WX    TMP DP  RH WIND       PRES   REMARKS
PULLMAN        CLOUDY    44  39  82 E5        30.08S
LEWISTON, ID   CLOUDY    50  47  89 SE3       30.07S
WALLA WALLA    CLOUDY    51  46  83 SE6       30.05R
PENDLETON, OR  LGT RAIN  47  44  90 CALM      30.05R
$$



USA.gov is the U.S. government's official web portal to all federal, state and local government web resources and services.